Location: Unspecified
(0.0000°N, 0.0000°E)
Time: 01:44:51
(UTC+00:00)

Vanguard 3 - Pass Details

Date: 25 November 2019
Orbit: 508 x 3263 km, 33.3° (Epoch: 11 December)

Event Time Altitude Azimuth Distance (km) Brightness Sun altitude
Rises 20:37:28 0° 302° (WNW) 6,098 12.0 -39.3°
Reaches altitude 10° 20:42:12 10° 300° (WNW) 4,655 11.3 -40.3°
Enters shadow 20:51:42 53° 276° (W) 1,774 8.8 -42.4°
